Weather History for Orange, MA

Change the Weather History Date:

Tuesday, March 13, 2012

  Actual Average Record
Temperature  
Mean Temperature 56 °F -  
Max Temperature 69 °F 37 °F 69 °F (2012)
Min Temperature 45 °F 19 °F 1 °F (1998)
Degree Days  
Heating Degree Days 8    
Growing Degree Days 6 (Base 50)    
Moisture  
Dew Point 48 °F    
Average Humidity 82    
Maximum Humidity 100    
Minimum Humidity 56    
Precipitation  
Precipitation 0.09 in - - ()
Sea Level Pressure  
Sea Level Pressure 29.98 in    
Wind  
Wind Speed 3 mph (South)    
Max Wind Speed 15 mph    
Max Gust Speed -    
Visibility 9 miles    
Events Rain , Thunderstorm    
Averages and records for this station are not official NWS values.
T = Trace of Precipitation, MM = Missing Value Source: NWS Daily Summary

Daily Weather History Graph

Daily Weather History Graph

Search for Another Location

Airport:

Trip Planner

Search our weather history database for the weather conditions in past years. The results will help you decide how hot, cold, wet, or windy it might be!

Date:

Astronomy

Mar. 13, 2012 Rise Set
Actual Time 7:03 AM EDT 6:53 PM EDT
Civil Twilight 6:35 AM EDT 7:21 PM EDT
Nautical Twilight 6:03 AM EDT 7:54 PM EDT
Astronomical Twilight 5:29 AM EDT 8:27 PM EDT
Moon 12:30 AM EDT (3/13) 10:05 AM EDT (3/13)
Length of Visible Light 12h 46m
Length of Day
11h 50m
Waning Gibbous, 66% of the Moon is Illuminated
Mar 13
Waning Gibbous
Mar 14
Last Quarter
Mar 22
New
Mar 30
First Quarter
Apr 6
Full

Hourly Weather History & Observations

Time (EDT) Temp. Windchill Dew Point Humidity Pressure Visibility Wind Dir Wind Speed Gust Speed Precip Events Conditions
12:52 AM 46.9 °F - 37.9 °F 71% 30.09 in 10.0 mi Calm Calm - N/A   Overcast
1:52 AM 46.9 °F - 41.0 °F 80% 30.07 in 10.0 mi Calm Calm - 0.00 in   Overcast
2:52 AM 48.0 °F - 41.0 °F 77% 30.08 in 10.0 mi East 3.5 mph - 0.00 in   Overcast
3:52 AM 48.0 °F - 39.9 °F 74% 30.05 in 10.0 mi Calm Calm - 0.00 in Rain Light Rain
4:52 AM 46.0 °F - 42.1 °F 86% 30.04 in 10.0 mi Calm Calm - 0.00 in   Overcast
5:52 AM 45.0 °F - 43.0 °F 93% 30.04 in 10.0 mi Calm Calm - 0.01 in Rain Light Rain
6:52 AM 45.0 °F - 44.1 °F 97% 30.03 in 10.0 mi Calm Calm - 0.00 in   Overcast
7:52 AM 46.0 °F 43.9 °F 45.0 °F 96% 30.03 in 5.0 mi SSW 4.6 mph - 0.03 in Rain Light Rain
8:29 AM 46.4 °F 44.3 °F 46.4 °F 100% 30.01 in 5.0 mi South 4.6 mph - 0.00 in   Mostly Cloudy
8:47 AM 48.2 °F - 46.4 °F 93% 30.01 in 6.0 mi Calm Calm - 0.00 in   Overcast
8:52 AM 48.0 °F - 46.9 °F 96% 30.01 in 6.0 mi Calm Calm - 0.00 in   Overcast
9:52 AM 48.9 °F - 46.9 °F 93% 30.01 in 9.0 mi Calm Calm - N/A   Clear
10:52 AM 53.1 °F - 48.9 °F 86% 29.99 in 10.0 mi SSE 8.1 mph - N/A   Clear
11:52 AM 57.0 °F - 50.0 °F 77% 29.98 in 10.0 mi SSE 5.8 mph - N/A   Overcast
12:52 PM 60.1 °F - 51.1 °F 72% 29.94 in 10.0 mi South 8.1 mph - N/A   Overcast
1:52 PM 64.0 °F - 51.1 °F 63% 29.92 in 10.0 mi South 9.2 mph - N/A   Scattered Clouds
2:52 PM 66.0 °F - 52.0 °F 60% 29.88 in 10.0 mi South 13.8 mph - N/A   Clear
3:52 PM 68.0 °F - 52.0 °F 56% 29.86 in 10.0 mi South 15.0 mph - N/A   Partly Cloudy
4:52 PM 68.0 °F - 52.0 °F 56% 29.87 in 10.0 mi South 8.1 mph - N/A   Mostly Cloudy
5:52 PM 68.0 °F - 52.0 °F 56% 29.88 in 10.0 mi West 6.9 mph - N/A   Overcast
6:52 PM 61.0 °F - 53.1 °F 75% 29.90 in 10.0 mi Calm Calm - N/A   Clear
7:52 PM 55.9 °F - 52.0 °F 87% 29.92 in 10.0 mi Calm Calm - N/A   Scattered Clouds
8:52 PM 53.1 °F - 51.1 °F 93% 29.95 in 10.0 mi Calm Calm - N/A   Overcast
9:52 PM 53.1 °F - 51.1 °F 93% 29.95 in 10.0 mi Calm Calm - N/A   Overcast
10:52 PM 50.0 °F - 48.9 °F 96% 29.95 in 8.0 mi North 4.6 mph - N/A   Mostly Cloudy
11:21 PM 51.8 °F - 48.2 °F 88% 29.95 in 8.0 mi Calm Calm - N/A Thunderstorm Mostly Cloudy
11:52 PM 53.1 °F - 51.1 °F 93% 29.96 in 4.0 mi NNW 6.9 mph - 0.05 in Rain , Thunderstorm Thunderstorms and Rain